Regional Weather Roundup
Issued by NWS Little Rock, AR

Home | Current Version | Previous Version | Graphics & Text | Print | Product List | Glossary On
Versions: 1 2 3 4 5 6 7 8 9 10 11 12 13 14 15 16 17 18 19 20 21 22 23 24 25 26 27 28 29 30 31
000
ASUS44 KLZK 222105
RWRLZK

WEATHER ROUNDUP FOR ARKANSAS
NATIONAL WEATHER SERVICE LITTLE ROCK AR
300 PM CST WED FEB 22 2017

NOTE: "FAIR" INDICATES FEW OR NO CLOUDS BELOW 12,000 FEET WITH NO
SIGNIFICANT WEATHER AND/OR OBSTRUCTIONS TO VISIBILITY.

ARZ001-003-010-029-222200-
NORTHWEST ARKANSAS

CITY           SKY/WX    TMP DP  RH WIND       PRES   REMARKS
FAYETTEVILLE   SUNNY     77  48  35 SW13      29.76F
FORT SMITH     SUNNY     77  56  48 E6        29.75F
HARRISON       SUNNY     75  55  49 SE10      29.76F
BENTONVILLE    SUNNY     77  48  36 W9        29.76F
ROGERS         SUNNY     76  48  37 SW9       29.76F
SILOAM SPGS    SUNNY     75  48  38 S7        29.75F
HIGHFILL       SUNNY     76  44  32 SW9       29.75F
SPRINGDALE     SUNNY     77  50  38 MISG      29.77
$$

ARZ004-005-016-222200-
NORTH CENTRAL ARKANSAS

CITY           SKY/WX    TMP DP  RH WIND       PRES   REMARKS
BATESVILLE     PTSUNNY   64  55  72 SW7       29.82F
FLIPPIN        SUNNY     73  54  49 S3        29.75F
MTN HOME       SUNNY     71  55  56 VRB3      29.77F
$$

ARZ040-041-222200-
WEST CENTRAL ARKANSAS

CITY           SKY/WX    TMP DP  RH WIND       PRES   REMARKS
MENA           SUNNY     77  57  50 CALM      29.78F
MOUNT IDA      SUNNY     72  55  55 VRB6      29.77
$$

ARZ009-017-025-026-028-222200-
NORTHEAST ARKANSAS

CITY           SKY/WX    TMP DP  RH WIND       PRES   REMARKS
CORNING        FAIR      68  63  83 W8        29.81F
JONESBORO      PTSUNNY   68  58  70 VRB3      29.81F
NEWPORT        MOSUNNY   68  57  68 SW6       29.82S
WALNUT RIDGE   CLOUDY    66  57  72 CALM      29.81F
BLYTHEVILLE    PTSUNNY   74  58  57 SW6       29.80F
NW BLYTHEVILLE MOSUNNY   73  61  64 SW3       29.80
$$

ARZ022-023-033-042-044-222200-
CENTRAL ARKANSAS

CITY           SKY/WX    TMP DP  RH WIND       PRES   REMARKS
LITTLE ROCK    CLOUDY    61  58  90 SE6       29.84F
N LITTLE ROCK    N/A     61  58  88 S6        29.84F
JACKSONVILLE   CLOUDY    61  58  90 S6        29.83F
SEARCY         CLOUDY    67  59  75 S6        29.84F
HOT SPRINGS    SUNNY     66  56  70 S9        29.81F
RUSSELLVILLE   SUNNY     68  58  70 VRB7      29.78F
CLINTON        FAIR      66  57  72 S7        29.81F
$$

ARZ036-222200-
EAST ARKANSAS

CITY           SKY/WX    TMP DP  RH WIND       PRES   REMARKS
WEST MEMPHIS   MOSUNNY   74  56  53 VRB3      29.79S
$$

ARZ050-053-066-070-073-222200-
SOUTHWEST ARKANSAS

CITY           SKY/WX    TMP DP  RH WIND       PRES   REMARKS
ARKADELPHIA    CLOUDY    63  56  78 SE5       29.83F
CAMDEN         PTSUNNY   68  54  60 CALM      29.83F
TEXARKANA      SUNNY     70  58  65 SE6       29.79F
EL DORADO      SUNNY     69  57  65 NW5       29.83F
DE QUEEN       SUNNY     74  59  59 S6        29.76F
$$

ARZ056-057-069-222200-
SOUTHEAST ARKANSAS

CITY           SKY/WX    TMP DP  RH WIND       PRES   REMARKS
PINE BLUFF     CLOUDY    62  56  80 NW3       29.85F
STUTTGART      PTSUNNY   70  54  56 S7        29.83F
MONTICELLO     CLOUDY    65  56  72 CALM      29.84F

$$






USA.gov is the U.S. government's official web portal to all federal, state and local government web resources and services.